EW3205 Weather Reports


time (UTC)temp
F
wind
direction
speed
knots
gust
knots
rain 1hr
in
rain 24hr
in
rain mn
in
humidity
%
barometer
mb
20260901044543 59 236 0.9 2.6 0.00 0.24 0.00 95 1007.5
20260901043033 59 236 0.0 2.6 0.00 0.24 0.00 95 1007.3
20260901041533 59 231 0.9 2.6 0.00 0.24 0.00 96 1007.3
20260901040032 58 258 0.0 1.7 0.00 0.24 0.00 95 1007.2
20260901034533 58 281 0.0 0.9 0.00 0.24 0.00 95 1007.1
20260901033031 59 287 0.0 0.9 0.00 0.24 0.00 95 1006.9
20260901031532 59 279 0.0 2.6 0.00 0.24 0.00 95 1007.0
20260901030029 59 250 0.0 2.6 0.00 0.24 0.00 95 1007.0
20260901024528 59 233 0.9 4.3 0.00 0.24 0.00 95 1006.8
20260901023037 59 271 0.0 2.6 0.00 0.24 0.00 95 1006.8
20260901021528 59 281 0.0 0.9 0.00 0.24 0.00 95 1006.7
20260901020024 60 320 0.0 0.9 0.00 0.24 0.00 95 1006.7
20260901014523 60 337 0.0 2.6 0.00 0.24 0.00 95 1006.6
20260901013023 60 340 0.0 2.6 0.00 0.24 0.00 96 1006.6
20260901011520 59 267 0.0 1.7 0.00 0.24 0.00 95 1006.5
20260901010020 59 244 0.0 1.7 0.00 0.24 0.00 95 1006.3
20260901004519 58 261 0.0 2.6 0.00 0.24 0.00 95 1006.3
20260901003022 58 209 0.0 0.0 0.00 0.24 0.00 95 1006.4
20260901001522 58 209 0.0 0.0 0.00 0.24 0.00 95 1006.3
20260901000017 58 209 0.0 0.0 0.00 0.24 0.00 95 1006.3
20260831234516 58 209 0.0 0.0 0.00 0.24 0.00 95 1006.3
20260831233016 59 209 0.0 0.0 0.00 0.24 0.00 95 1006.2
20260831231526 59 209 0.0 0.0 0.00 0.24 0.00 95 1006.3
20260831230015 59 192 0.0 0.9 0.00 0.24 0.00 95 1006.3
20260831224514 59 192 0.0 0.0 0.00 0.24 0.00 95 1006.2
20260831223013 58 192 0.0 1.7 0.00 0.24 0.00 95 1006.2
20260831221511 59 213 0.0 2.6 0.00 0.24 0.00 95 1006.2
20260831220010 59 219 0.9 4.3 0.00 0.24 0.00 95 1006.1
20260831214509 59 215 2.6 4.3 0.00 0.24 0.24 95 1006.1
20260831213008 59 157 0.0 3.5 0.00 0.24 0.24 95 1006.0
20260831211514 59 188 1.7 3.5 0.00 0.24 0.24 95 1006.0
20260831210008 59 159 0.0 0.9 0.00 0.24 0.24 94 1006.0
20260831204510 59 159 0.0 2.6 0.00 0.24 0.24 94 1005.9
20260831203015 59 115 0.9 2.6 0.00 0.24 0.24 94 1006.0
20260831201507 59 115 0.0 1.7 0.00 0.24 0.24 94 1005.9
20260831200005 59 121 0.9 1.7 0.00 0.24 0.24 94 1006.0
20260831194509 59 121 0.0 1.7 0.00 0.24 0.24 94 1006.0
20260831193005 59 122 0.0 2.6 0.00 0.24 0.24 94 1006.0
20260831191504 59 86 0.0 0.9 0.00 0.24 0.24 94 1005.9
20260831190006 59 78 0.0 1.7 0.00 0.24 0.24 94 1005.8
20260831184504 59 74 0.9 2.6 0.00 0.24 0.24 94 1005.8
20260831183003 59 94 0.0 2.6 0.00 0.24 0.24 94 1005.7
20260831181503 59 103 0.9 3.5 0.02 0.24 0.24 94 1005.6
20260831180002 59 107 0.9 2.6 0.03 0.24 0.24 94 1005.6
20260831174502 59 143 0.0 1.7 0.06 0.24 0.24 94 1005.4
20260831173002 59 154 0.9 2.6 0.08 0.24 0.24 94 1005.5
20260831171502 59 190 0.0 4.3 0.09 0.22 0.22 94 1005.5
20260831170001 59 186 1.7 5.2 0.10 0.20 0.20 94 1005.5
20260831164612 60 150 0.9 3.5 0.09 0.21 0.18 94 1005.5
20260831163104 60 114 1.7 6.1 0.08 0.19 0.16 93 1005.3
20260831161557 60 167 0.9 5.2 0.06 0.17 0.13 93 1005.5
20260831160057 61 157 2.6 6.1 0.02 0.13 0.09 93 1005.6
20260831154606 61 237 2.6 7.0 0.01 0.19 0.08 93 1005.6
20260831153056 61 140 0.9 3.5 0.02 0.19 0.08 93 1005.7
20260831151557 61 113 0.9 6.1 0.06 0.19 0.08 93 1005.6
20260831150055 61 104 0.9 2.6 0.06 0.19 0.08 93 1005.7
20260831144603 61 127 0.9 3.5 0.07 0.28 0.07 92 1006.0
20260831143059 61 104 2.6 6.1 0.06 0.26 0.06 91 1005.7
20260831141553 61 86 2.6 7.0 0.02 0.23 0.02 91 1005.8
20260831140052 62 27 3.5 7.8 0.01 0.21 0.01 87 1005.8
20260831134551 63 138 5.2 10.4 0.00 0.23 0.00 83 1005.8
20260831133051 63 202 5.2 12.2 0.00 0.23 0.00 82 1006.0
20260831131555 64 184 7.0 13.9 0.00 0.23 0.00 82 1005.9
20260831130104 64 182 6.1 13.9 0.00 0.23 0.00 79 1006.0
20260831124551 65 131 6.1 10.4 0.00 0.24 0.00 79 1006.0
20260831123049 67 195 6.1 8.7 0.00 0.24 0.00 77 1005.9
20260831121549 66 219 4.3 10.4 0.00 0.24 0.00 76 1006.0
20260831120049 68 174 7.0 13.0 0.00 0.24 0.00 76 1005.9
20260831114545 65 194 5.2 10.4 0.00 0.24 0.00 79 1005.9
20260831113045 65 220 3.5 8.7 0.00 0.24 0.00 80 1005.9
20260831111544 64 204 4.3 11.3 0.00 0.24 0.00 81 1006.0
20260831110044 66 175 4.3 9.6 0.00 0.24 0.00 79 1006.0
20260831104544 64 177 7.0 13.9 0.00 0.24 0.00 79 1006.1
20260831103043 64 223 6.1 13.0 0.00 0.24 0.00 77 1006.2
20260831101543 65 212 7.0 14.8 0.00 0.24 0.00 76 1006.1
20260831100041 66 194 8.7 14.8 0.00 0.24 0.00 76 1006.2
20260831094539 64 205 6.1 10.4 0.00 0.25 0.00 80 1006.1
20260831093038 63 198 5.2 11.3 0.00 0.25 0.00 82 1006.2
20260831091537 63 258 7.8 13.9 0.00 0.25 0.00 81 1006.2
20260831090037 63 198 7.8 13.0 0.00 0.25 0.00 80 1006.2
20260831084535 64 175 7.8 13.0 0.00 0.28 0.00 80 1006.1
20260831083039 65 254 5.2 10.4 0.00 0.28 0.00 78 1006.0
20260831081531 64 199 4.3 10.4 0.00 0.28 0.00 78 1005.9
20260831080028 63 204 4.3 12.2 0.00 0.28 0.00 82 1006.0
20260831074526 62 222 7.0 13.0 0.00 0.30 0.00 82 1006.1
20260831073025 63 4 6.1 11.3 0.00 0.30 0.00 82 1006.1
20260831071521 62 240 5.2 10.4 0.00 0.30 0.00 83 1006.1
20260831070025 61 218 5.2 13.0 0.00 0.30 0.00 85 1006.0
20260831064518 60 215 6.1 13.0 0.00 0.32 0.00 85 1006.0
20260831063015 60 200 5.2 13.9 0.00 0.32 0.00 85 1006.1
20260831061513 60 4 5.2 13.0 0.00 0.32 0.00 85 1006.1
20260831060011 59 227 3.5 14.8 0.00 0.32 0.00 86 1006.0
20260831054510 59 231 7.0 13.9 0.00 0.32 0.00 85 1006.0
20260831053009 59 217 6.1 12.2 0.00 0.32 0.00 86 1006.1
20260831051507 59 4 7.0 13.9 0.00 0.32 0.00 86 1006.0
20260831050006 58 214 5.2 9.6 0.00 0.32 0.00 86 1005.9